Tracking 19562 objects as of 24-Mar-2019
HD Live streaming from Space Station
objects crossing your sky now

CHEFSAT

Track CHEFSAT now!
10-day predictions


NORAD ID: 43044
Int'l Code: 2017-071H
Perigee: 442.3 km
Apogee: 448.0 km
Inclination: 51.6 °
Period: 93.3 minutes
Semi major axis: 6816 km
RCS: Unknown
Launch date: November 12, 2017
Source: United States (US)
Launch site: WALLOPS ISLAND (WLPIS)
aabbcc
Your satellite tracking list
Your tracking list is empty




NASA's NSSDC Master Catalog

Two Line Element Set (TLE):
1 43044U 17071H   19082.92159472 +.00003928 +00000-0 +97693-4 0  9990
2 43044 051.6379 113.2814 0004175 197.8676 162.2164 15.42754085072720
Source of the keplerian elements: AFSPC